{"data":{"norad_id":66153,"epoch":"2026-05-25T00:47:59.064864Z","epoch_age_seconds":68324,"freshness":"FRESH","line1":"1 66153U 25240H   26145.03332251  .00019466  00000+0  58580-3 0  9995","line2":"2 66153  53.1603  67.7368 0001102  87.8768 272.2361 15.34398194 33686","mean_motion":15.34398194,"eccentricity":0.0001102,"inclination_deg":53.1603,"raan_deg":67.7368,"arg_perigee_deg":87.8768,"mean_anomaly_deg":272.2361,"bstar":0.0005858,"rev_number":3368,"period_min":93.847868540961,"perigee_km":461.95474683896,"apogee_km":463.46246921097,"semimajor_km":6840.845608025,"source":"CELESTRAK","updated_at":"2026-05-25T13:38:21.069952Z"}}